Weather in Butte

United States     46°00′18″N   112°32′20″W
temp.,
°C
wind,
m/s
gust,
m/s
humid.,
%
clouds,
%
prec.,
mm/h
press.,
hPa
HPBL,
m
25 may, wed
wed2500:00+6sw1146100 0.0 101410
03:00+6wnw1242100 0.0 101462
06:00+5w235598 0.0 1014129
09:00+8wsw3656100 0.0 1014716
12:00+14w7123861 0.0 10112236
15:00+18w81128100 0.0 10092738
18:00+18wnw9122936 0.0 10082499
21:00+9nnw335995 0.0 101120
26 may, thu
thu2600:00+8sw226888 0.0 101213
03:00+6wsw1179100 0.0 101311
06:00+5w1176100 0.0 101410
09:00+12wsw1346100 0.0 1013338
12:00+19w482291 0.0 10102266
15:00+21w7920100 0.0 10073043
18:00+20sw5927100 0.0 10062474
21:00+13ese2255100 0.1 100719
27 may, fri
fri2700:00+10se3271100 0.6 100826
03:00+9sse2287100 0.3 100721
06:00+9sw2385100 0.8 100768
09:00+10sw31074100 0.6 1008863
12:00+14wnw695673 0.9 10071508
15:00+16nw5844100 0.6 10051498
18:00+14wnw7847100 0.7 10041439
21:00+11wnw2264100 0.4 100540
28 may, sat
sat2800:00+7wnw2278100 0.6 100628
03:00+7nw1178100 0.0 100432
06:00+6nw2282100 0.0 100346
09:00+7wsw1177100 0.2 1002507
12:00+9nw337094 0.6 1001872
15:00+11wnw335965 0.4 9981064
18:00+11nw235864 1.6 9961109
21:00+6ese3290100 7.4 998199
29 may, sun
sun2900:00+4ssw2195100 16.0 999456
03:00+4sw119283 3.3 997241
06:00+4wnw119199 3.4 997325
09:00+4wsw1196100 2.2 998528
12:00+2wnw21100100 11.3 1001103
15:00+3wnw22100100 2.6 1002293
18:00+3wnw3498100 3.3 1004381
21:00+1wnw34100100 0.5 1006149